H1 CPF 2 NER 2024 7 4 9 186 01 glonass127 H2 1106403 9127 37869 2024 7 4 0 0 0 2024 7 7 23 45 0 900 1 1 0 0 0 1 H9 10 0 60495 0.00000 0 -25247861.555 611265.536 3759089.991 10 0 60495 900.00000 0 -24583452.348 690756.380 6890194.811 10 0 60495 1800.00000 0 -23545988.200 647978.643 9887956.799 10 0 60495 2700.00000 0 -22170549.315 436855.883 12694497.828 10 0 60495 3600.00000 0 -20502780.389 19148.576 15255702.112 10 0 60495 4500.00000 0 -18597040.591 -633709.306 17522237.191 10 0 60495 5400.00000 0 -16514215.647 -1539183.736 19450480.023 10 0 60495 6300.00000 0 -14319282.696 -2702682.422 21003332.782 10 0 60495 7200.00000 0 -12078727.799 -4117104.011 22150915.006 10 0 60495 8100.00000 0 -9857921.326 -5762913.160 22871121.106 10 0 60495 9000.00000 0 -7718557.510 -7608738.850 23150034.355 10 0 60495 9900.00000 0 -5716261.611 -9612472.362 22982190.720 10 0 60495 10800.00000 0 -3898461.178 -11722821.443 22370688.079 10 0 60495 11700.00000 0 -2302607.355 -13881258.877 21327138.538 10 0 60495 12600.00000 0 -954818.370 -16024287.708 19871463.840 10 0 60495 13500.00000 0 130999.384 -18085932.272 18031536.115 10 0 60495 14400.00000 0 953516.223 -20000354.477 15842668.648 10 0 60495 15300.00000 0 1523814.089 -21704488.895 13346963.902 10 0 60495 16200.00000 0 1864697.138 -23140588.433 10592528.577 10 0 60495 17100.00000 0 2009505.163 -24258574.983 7632568.232 10 0 60495 18000.00000 0 2000477.889 -25018096.278 4524376.676 10 0 60495 18900.00000 0 1886737.370 -25390201.390 1328237.930 10 0 60495 19800.00000 0 1721972.436 -25358562.262 -1893739.029 10 0 60495 20700.00000 0 1561922.664 -24920187.179 -5078830.406 10 0 60495 21600.00000 0 1461768.745 -24085593.085 -8164928.620 10 0 60495 22500.00000 0 1473541.106 -22878426.457 -11091769.097 10 0 60495 23400.00000 0 1643658.774 -21334546.215 -13802127.162 10 0 60495 24300.00000 0 2010705.605 -19500605.260 -16242959.505 10 0 60495 25200.00000 0 2603541.305 -17432189.362 -18366465.676 10 0 60495 26100.00000 0 3439830.594 -15191591.533 -20131046.516 10 0 60495 27000.00000 0 4525055.827 -12845316.117 -21502138.713 10 0 60495 27900.00000 0 5852057.527 -10461418.721 -22452907.372 10 0 60495 28800.00000 0 7401124.208 -8106795.263 -22964781.737 10 0 60495 29700.00000 0 9140628.992 -5844535.670 -23027822.778 10 0 60495 30600.00000 0 11028186.581 -3731454.646 -22640915.206 10 0 60495 31500.00000 0 13012281.561 -1815904.078 -21811780.390 10 0 60495 32400.00000 0 15034298.599 -135959.043 -20556810.673 10 0 60495 33300.00000 0 17030867.810 1281947.130 -18900729.445 10 0 60495 34200.00000 0 18936425.164 2423882.961 -16876085.111 10 0 60495 35100.00000 0 20685878.895 3288740.361 -14522590.561 10 0 60495 36000.00000 0 22217268.710 3888007.179 -11886322.910 10 0 60495 36900.00000 0 23474305.429 4245003.893 -9018801.101 10 0 60495 37800.00000 0 24408684.339 4393620.388 -5975961.212 10 0 60495 38700.00000 0 24982075.820 4376609.741 -2817051.144 10 0 60495 39600.00000 0 25167710.995 4243514.331 396532.335 10 0 60495 40500.00000 0 24951497.844 4048314.466 3602440.594 10 0 60495 41400.00000 0 24332623.313 3846900.660 6738580.397 10 0 60495 42300.00000 0 23323618.741 3694477.208 9744308.018 10 0 60495 43200.00000 0 21949888.307 3643006.623 12561587.728 10 0 60495 44100.00000 0 20248722.299 3738801.900 15136093.456 10 0 60495 45000.00000 0 18267837.888 4020366.606 17418234.051 10 0 60495 45900.00000 0 16063508.945 4516571.888 19364084.494 10 0 60495 46800.00000 0 13698362.534 5245245.176 20936207.527 10 0 60495 47700.00000 0 11238932.604 6212228.234 22104352.232 10 0 60495 48600.00000 0 8753070.544 7410943.032 22846018.455 10 0 60495 49500.00000 0 6307317.438 8822483.432 23146878.076 10 0 60495 50400.00000 0 3964344.084 10416229.534 23001046.378 10 0 60495 51300.00000 0 1780561.882 12150960.690 22411198.967 10 0 60495 52200.00000 0 -195999.156 13976423.212 21388531.839 10 0 60495 53100.00000 0 -1927459.446 15835290.417 19952564.484 10 0 60495 54000.00000 0 -3387434.023 17665436.631 18130788.171 10 0 60495 54900.00000 0 -4561896.682 19402433.568 15958163.969 10 0 60495 55800.00000 0 -5449527.871 20982167.747 13476477.580 10 0 60495 56700.00000 0 -6061530.943 22343471.732 10733560.695 10 0 60495 57600.00000 0 -6420923.002 23430660.329 7782391.183 10 0 60495 58500.00000 0 -6561328.306 24195865.601 4680087.252 10 0 60495 59400.00000 0 -6525323.273 24601071.742 1486813.225 10 0 60495 60300.00000 0 -6362401.382 24619762.425 -1735382.968 10 0 60495 61200.00000 0 -6126643.067 24238108.611 -4923778.319 10 0 60495 62100.00000 0 -5874189.026 23455643.590 -8016205.344 10 0 60495 63000.00000 0 -5660624.750 22285393.712 -10952279.748 10 0 60495 63900.00000 0 -5538388.635 20753456.074 -13674599.408 10 0 60495 64800.00000 0 -5554315.879 18898038.377 -16129889.165 10 0 60495 65700.00000 0 -5747425.141 16767999.725 -18270066.844 10 0 60495 66600.00000 0 -6147044.812 14420952.738 -20053207.273 10 0 60495 67500.00000 0 -6771361.274 11921006.797 -21444383.375 10 0 60495 68400.00000 0 -7626453.286 9336247.874 -22416366.092 10 0 60495 69300.00000 0 -8705855.476 6736061.971 -22950168.079 10 0 60495 70200.00000 0 -9990670.791 4188415.958 -23035419.726 10 0 60495 71100.00000 0 -11450227.838 1757211.254 -22670569.859 10 0 60495 72000.00000 0 -13043255.219 -500177.567 -21862907.431 10 0 60495 72900.00000 0 -14719522.557 -2535075.554 -20628404.502 10 0 60495 73800.00000 0 -16421877.762 -4309300.721 -18991384.691 10 0 60495 74700.00000 0 -18088593.094 -5796503.801 -16984025.067 10 0 60495 75600.00000 0 -19655919.564 -6983000.207 -14645702.927 10 0 60495 76500.00000 0 -21060740.644 -7868062.041 -12022202.071 10 0 60495 77400.00000 0 -22243212.472 -8463661.238 -9164796.026 10 0 60495 78300.00000 0 -23149278.875 -8793678.432 -6129227.978 10 0 60495 79200.00000 0 -23732955.540 -8892614.720 -2974608.963 10 0 60495 80100.00000 0 -23958288.029 -8803864.243 237742.741 10 0 60495 81000.00000 0 -23800902.799 -8577623.600 3445497.447 10 0 60495 81900.00000 0 -23249087.989 -8268528.686 6586521.341 10 0 60495 82800.00000 0 -22304360.870 -7933120.198 9600071.756 10 0 60495 83700.00000 0 -20981500.426 -7627245.259 12427957.924 10 0 60495 84600.00000 0 -19308045.772 -7403504.336 15015645.905 10 0 60495 85500.00000 0 -17323282.922 -7308849.857 17313288.071 10 0 60496 0.00000 0 -15076763.260 -7382435.818 19276659.192 10 0 60496 900.00000 0 -12626414.212 -7653806.881 20867984.502 10 0 60496 1800.00000 0 -10036322.839 -8141500.907 22056643.619 10 0 60496 2700.00000 0 -7374278.691 -8852122.074 22819742.576 10 0 60496 3600.00000 0 -4709178.313 -9779922.472 23142542.199 10 0 60496 4500.00000 0 -2108394.877 -10906909.604 23018737.032 10 0 60496 5400.00000 0 364781.021 -12203476.193 22450579.988 10 0 60496 6300.00000 0 2653526.486 -13629527.782 21448850.216 10 0 60496 7200.00000 0 4709601.091 -15136063.549 20032663.928 10 0 60496 8100.00000 0 6495105.613 -16667147.351 18229130.229 10 0 60496 9000.00000 0 7983812.854 -18162189.853 16072856.395 10 0 60496 9900.00000 0 9162015.475 -19558449.328 13605309.535 10 0 60496 10800.00000 0 10028854.993 -20793648.939 10874044.214 10 0 60496 11700.00000 0 10596116.994 -21808602.551 7931808.243 10 0 60496 12600.00000 0 10887499.501 -22549739.508 4835541.638 10 0 60496 13500.00000 0 10937383.412 -22971421.884 1645286.249 10 0 60496 14400.00000 0 10789155.119 -23037955.228 -1576973.926 10 0 60496 15300.00000 0 10493150.776 -22725205.671 -4768519.578 10 0 60496 16200.00000 0 10104308.530 -22021752.217 -7867126.239 10 0 60496 17100.00000 0 9679628.243 -20929522.211 -10812292.732 10 0 60496 18000.00000 0 9275547.278 -19463879.702 -13546442.186 10 0 60496 18900.00000 0 8945345.408 -17653160.030 -16016070.166 10 0 60496 19800.00000 0 8736691.158 -15537667.609 -18172815.119 10 0 60496 20700.00000 0 8689436.387 -13168177.509 -19974427.912 10 0 60496 21600.00000 0 8833755.383 -10604003.252 -21385619.421 10 0 60496 22500.00000 0 9188709.852 -7910711.842 -22378767.744 10 0 60496 23400.00000 0 9761302.723 -5157582.818 -22934469.842 10 0 60496 24300.00000 0 10546062.305 -2414919.070 -23041925.987 10 0 60496 25200.00000 0 11525175.151 248676.556 -22699149.166 10 0 60496 26100.00000 0 12669161.999 2768943.466 -21912995.567 10 0 60496 27000.00000 0 13938067.526 5088412.867 -20699016.258 10 0 60496 27900.00000 0 15283112.379 7158561.891 -19081134.039 10 0 60496 28800.00000 0 16648736.062 8941582.580 -17091153.266 10 0 60496 29700.00000 0 17974942.602 10411693.090 -14768113.928 10 0 60496 30600.00000 0 19199848.247 11555938.392 -12157504.447 10 0 60496 31500.00000 0 20262322.209 12374449.893 -9310350.535 10 0 60496 32400.00000 0 21104608.068 12880156.637 -6282199.749 10 0 60496 33300.00000 0 21674814.918 13097964.071 -3132023.243 10 0 60496 34200.00000 0 21929173.541 13063438.765 78942.424 10 0 60496 35100.00000 0 21833963.543 12821057.981 3288389.849 10 0 60496 36000.00000 0 21367031.862 12422100.766 6434147.980 10 0 60496 36900.00000 0 20518840.723 11922271.500 9455378.454 10 0 60496 37800.00000 0 19293003.108 11379157.209 12293738.515 10 0 60496 38700.00000 0 17706285.282 10849625.889 14894489.163 10 0 60496 39600.00000 0 15788077.853 10387274.570 17207528.790 10 0 60496 40500.00000 0 13579358.501 10040032.997 19188334.453 10 0 60496 41400.00000 0 11131189.819 9848021.571 20798795.002 10 0 60496 42300.00000 0 8502814.178 9841751.324 22007922.431 10 0 60496 43200.00000 0 5759423.254 10040739.361 22792430.039 10 0 60496 44100.00000 0 2969692.426 10452596.228 23137168.242 10 0 60496 45000.00000 0 203179.413 11072622.550 23035411.041 10 0 60496 45900.00000 0 -2472308.344 11883931.883 22488988.364 10 0 60496 46800.00000 0 -4993271.809 12858095.622 21508261.700 10 0 60496 47700.00000 0 -7302900.928 13956284.872 20111942.652 10 0 60496 48600.00000 0 -9353181.427 15130864.039 18326756.344 10 0 60496 49500.00000 0 -11106642.037 16327372.449 16186953.999 10 0 60496 50400.00000 0 -12537670.249 17486813.962 13733681.501 10 0 60496 51300.00000 0 -13633341.687 18548161.335 11014213.386 10 0 60496 52200.00000 0 -14393727.569 19450972.298 8081064.325 10 0 60496 53100.00000 0 -14831665.851 20138008.568 4990992.948 10 0 60496 54000.00000 0 -14972003.811 20557747.740 1803915.418 10 0 60496 54900.00000 0 -14850342.067 20666681.251 -1418251.386 10 0 60496 55800.00000 0 -14511331.270 20431299.495 -4612794.973 10 0 60496 56700.00000 0 -14006592.386 19829677.550 -7717436.880 10 0 60496 57600.00000 0 -13392348.070 18852591.192 -10671561.846 10 0 60496 58500.00000 0 -12726865.815 17504112.513 -13417420.834 10 0 60496 59400.00000 0 -12067822.395 15801656.554 -15901282.378 10 0 60496 60300.00000 0 -11469703.143 13775473.911 -18074507.434 10 0 60496 61200.00000 0 -10981348.659 11467608.507 -19894524.443 10 0 60496 62100.00000 0 -10643755.439 8930362.835 -21325683.375 10 0 60496 63000.00000 0 -10488226.033 6224334.622 -22339970.248 10 0 60496 63900.00000 0 -10534949.157 3416107.571 -22917566.730 10 0 60496 64800.00000 0 -10792071.419 575693.789 -23047243.002 10 0 60496 65700.00000 0 -11255300.726 -2226163.730 -22726575.876 10 0 60496 66600.00000 0 -11908058.263 -4920714.272 -21961988.071 10 0 60496 67500.00000 0 -12722171.871 -7443833.170 -20768608.586 10 0 60496 68400.00000 0 -13659080.223 -9738455.356 -19169957.970 10 0 60496 69300.00000 0 -14671495.061 -11756706.829 -17197466.108 10 0 60496 70200.00000 0 -15705449.193 -13461645.698 -14889833.646 10 0 60496 71100.00000 0 -16702641.566 -14828541.556 -12292251.374 10 0 60496 72000.00000 0 -17602978.455 -15845642.036 -9455494.778 10 0 60496 72900.00000 0 -18347201.863 -16514397.592 -6434913.281 10 0 60496 73800.00000 0 -18879493.232 -16849138.664 -3289335.588 10 0 60496 74700.00000 0 -19149942.253 -16876222.620 -79913.943 10 0 60496 75600.00000 0 -19116777.072 -16632690.006 3131069.158 10 0 60496 76500.00000 0 -18748262.913 -16164489.928 6281408.064 10 0 60496 77400.00000 0 -18024190.760 -15524351.791 9310171.349 10 0 60496 78300.00000 0 -16936895.335 -14769394.697 12158866.859 10 0 60496 79200.00000 0 -15491761.494 -13958575.725 14772553.030 10 0 60496 80100.00000 0 -13707199.511 -13150084.157 17100876.608 10 0 60496 81000.00000 0 -11614091.415 -12398789.934 19099018.866 10 0 60496 81900.00000 0 -9254731.952 -11753851.608 20728534.414 10 0 60496 82800.00000 0 -6681307.936 -11256581.870 21958068.865 10 0 60496 83700.00000 0 -3953977.976 -10938657.730 22763943.832 10 0 60496 84600.00000 0 -1138630.182 -10820748.216 23130599.986 10 0 60496 85500.00000 0 1695591.882 -10911615.443 23050891.070 10 0 60497 0.00000 0 4478895.496 -11207725.870 22526224.033 10 0 60497 900.00000 0 7143474.231 -11693388.313 21566542.233 10 0 60497 1800.00000 0 9626062.906 -12341413.559 20190152.021 10 0 60497 2700.00000 0 11870313.868 -13114270.417 18423393.588 10 0 60497 3600.00000 0 13828894.369 -13965691.883 16300160.853 10 0 60497 4500.00000 0 15465220.572 -14842667.010 13861276.922 10 0 60497 5400.00000 0 16754755.998 -15687737.579 11153734.408 10 0 60497 6300.00000 0 17685819.692 -16441505.411 8229812.604 10 0 60497 7200.00000 0 18259868.889 -17045246.407 5146086.189 10 0 60497 8100.00000 0 18491242.572 -17443521.854 1962342.771 10 0 60497 9000.00000 0 18406374.550 -17586676.438 -1259570.965 10 0 60497 9900.00000 0 18042507.323 -17433116.041 -4456952.543 10 0 60497 10800.00000 0 17445959.421 -16951266.677 -7567472.732 10 0 60497 11700.00000 0 16670018.374 -16121128.613 -10530405.346 10 0 60497 12600.00000 0 15772548.361 -14935356.476 -13287832.192 10 0 60497 13500.00000 0 14813414.278 -13399816.005 -15785797.573 10 0 60497 14400.00000 0 13851832.689 -11533590.545 -17975387.502 10 0 60497 15300.00000 0 12943763.811 -9368434.205 -19813710.222 10 0 60497 16200.00000 0 12139457.161 -6947692.590 -21264756.681 10 0 60497 17100.00000 0 11481257.078 -4324735.283 -22300122.319 10 0 60497 18000.00000 0 11001763.011 -1560965.519 -22899574.582 10 0 60497 18900.00000 0 10722423.993 1276509.071 -23051454.199 10 0 60497 19800.00000 0 10652627.634 4117446.125 -22752902.009 10 0 60497 20700.00000 0 10789322.314 6891169.751 -22009907.048 10 0 60497 21600.00000 0 11117187.857 9529289.018 -20837175.638 10 0 60497 22500.00000 0 11609346.150 11968319.031 -19257825.100 10 0 60497 23400.00000 0 12228579.662 14152094.453 -17302909.514 10 0 60497 24300.00000 0 12929004.076 16033874.745 -15010788.503 10 0 60497 25200.00000 0 13658121.816 17578054.037 -12426353.206 10 0 60497 26100.00000 0 14359167.269 18761405.871 -9600126.521 10 0 60497 27000.00000 0 14973642.518 19573813.286 -6587257.053 10 0 60497 27900.00000 0 15443934.857 20018456.845 -3446428.098 10 0 60497 28800.00000 0 15715904.619 20111456.297 -238704.416 10 0 60497 29700.00000 0 15741333.845 19880984.581 2973659.700 10 0 60497 30600.00000 0 15480133.065 19365894.857 6128427.313 10 0 60497 31500.00000 0 14902214.231 18613921.163 9164577.172 10 0 60497 32400.00000 0 13988952.597 17679530.490 12023470.808 10 0 60497 33300.00000 0 12734177.779 16621517.716 14649966.937 10 0 60497 34200.00000 0 11144654.101 15500444.629 16993463.243 10 0 60497 35100.00000 0 9240031.420 14376029.740 19008847.498 10 0 60497 36000.00000 0 7052269.170 13304596.745 20657342.036 10 0 60497 36900.00000 0 4624557.609 12336686.323 21907227.705 10 0 60497 37800.00000 0 2009780.243 11514928.763 22734435.681 10 0 60497 38700.00000 0 -731420.489 10872263.881 23122997.744 10 0 60497 39600.00000 0 -3532896.526 10430580.546 23065347.786 10 0 60497 40500.00000 0 -6325476.176 10199831.131 22562469.581 10 0 60497 41400.00000 0 -9039575.404 10177657.208 21623887.975 10 0 60497 42300.00000 0 -11607833.545 10349542.361 20267502.921 10 0 60497 43200.00000 0 -13967667.304 10689486.813 18519268.073 10 0 60497 44100.00000 0 -16063639.504 11161177.483 16412717.975 10 0 60497 45000.00000 0 -17849545.797 11719606.784 13988350.467 10 0 60497 45900.00000 0 -19290133.155 12313074.729 11292873.442 10 0 60497 46800.00000 0 -20362378.242 12885492.601 8378327.792 10 0 60497 47700.00000 0 -21056271.058 13378893.052 5301101.093 10 0 60497 48600.00000 0 -21375069.256 13736041.926 2120849.213 10 0 60497 49500.00000 0 -21335010.311 13903041.687 -1100654.543 10 0 60497 50400.00000 0 -20964491.371 13831815.496 -4300720.863 10 0 60497 51300.00000 0 -20302749.322 13482364.950 -7416972.767 10 0 60497 52200.00000 0 -19398095.432 12824703.257 -10388576.050 10 0 60497 53100.00000 0 -18305778.218 11840378.638 -13157446.088 10 0 60497 54000.00000 0 -17085564.867 10523519.821 -15669405.415 10 0 60497 54900.00000 0 -15799144.448 8881355.914 -17875267.270 10 0 60497 55800.00000 0 -14507464.094 6934185.390 -19731821.493 10 0 60497 56700.00000 0 -13268112.828 4714792.935 -21202701.380 10 0 60497 57600.00000 0 -12132865.707 2267336.867 -22259112.720 10 0 60497 58500.00000 0 -11145494.083 -354247.060 -22880409.217 10 0 60497 59400.00000 0 -10339936.112 -3088258.583 -23054502.193 10 0 60497 60300.00000 0 -9738905.836 -5867577.620 -22778096.128 10 0 60497 61200.00000 0 -9352999.847 -8622241.403 -22056745.590 10 0 60497 62100.00000 0 -9180338.703 -11282144.921 -20904733.057 10 0 60497 63000.00000 0 -9206756.918 -13779750.465 -19344771.116 10 0 60497 63900.00000 0 -9406531.459 -16052692.005 -17407536.237 10 0 60497 64800.00000 0 -9743615.474 -18046165.114 -15131044.979 10 0 60497 65700.00000 0 -10173322.286 -19715002.833 -12559886.618 10 0 60497 66600.00000 0 -10644385.666 -21025351.705 -9744329.144 10 0 60497 67500.00000 0 -11101306.671 -21955879.780 -6739317.979 10 0 60497 68400.00000 0 -11486885.691 -22498468.634 -3603388.634 10 0 60497 69300.00000 0 -11744831.132 -22658363.534 -397516.014 10 0 60497 70200.00000 0 -11822333.727 -22453778.942 2816076.145 10 0 60497 71100.00000 0 -11672497.736 -21914979.310 5975121.976 10 0 60497 72000.00000 0 -11256527.116 -21082876.864 9018512.753 10 0 60497 72900.00000 0 -10545575.790 -20007207.715 11887466.026 10 0 60497 73800.00000 0 -9522185.696 -18744364.507 14526643.086 10 0 60497 74700.00000 0 -8181253.881 -17354977.170 16885194.743 10 0 60497 75600.00000 0 -6530489.512 -15901342.875 18917717.299 10 0 60497 76500.00000 0 -4590342.673 -14444811.541 20585102.625 10 0 60497 77400.00000 0 -2393408.193 -13043234.288 21855268.353 10 0 60497 78300.00000 0 16671.180 -11748578.977 22703756.470 10 0 60497 79200.00000 0 2586758.057 -10604809.724 23114190.788 10 0 60497 80100.00000 0 5256167.857 -9646116.345 23078585.974 10 0 60497 81000.00000 0 7958932.512 -8895565.519 22597503.002 10 0 60497 81900.00000 0 10626289.920 -8364228.486 21680048.140 10 0 60497 82800.00000 0 13189299.378 -8050821.175 20343714.732 10 0 60497 83700.00000 0 15581477.801 -7941872.049 18614069.369 10 0 60497 84600.00000 0 17741350.116 -8012411.842 16524286.419 10 0 60497 85500.00000 0 19614809.813 -8227158.081 14114537.335 10 0 60498 0.00000 0 21157192.411 -8542146.877 11431244.069 10 0 60498 900.00000 0 22334976.216 -8906745.850 8526206.771 10 0 60498 1800.00000 0 23127036.450 -9265965.035 5455623.895 10 0 60498 2700.00000 0 23525401.353 -9562970.306 2279016.933 10 0 60498 3600.00000 0 23535474.164 -9741693.405 -941917.144 10 0 60498 4500.00000 0 23175710.072 -9749427.966 -4144505.352 10 0 60498 5400.00000 0 22476759.226 -9539300.325 -7266326.297 10 0 60498 6300.00000 0 21480109.939 -9072508.170 -10246441.071 10 0 60498 7200.00000 0 20236287.898 -8320229.206 -13026601.813 10 0 60498 8100.00000 0 18802686.870 -7265115.568 -15552412.346 10 0 60498 9000.00000 0 17241122.638 -5902307.030 -17774415.935 10 0 60498 9900.00000 0 15615214.471 -4239916.731 -19649086.532 10 0 60498 10800.00000 0 13987706.376 -2298965.989 -21139702.010 10 0 60498 11700.00000 0 12417842.940 -112768.528 -22217080.373 10 0 60498 12600.00000 0 10958912.542 2274211.352 -22860163.085 10 0 60498 13500.00000 0 9656063.210 4807979.319 -23056433.155 10 0 60498 14400.00000 0 8544484.410 7427042.123 -22802159.384 10 0 60498 15300.00000 0 7648031.915 10064763.226 -22102462.106 10 0 60498 16200.00000 0 6978353.405 12651943.106 -20971199.766 10 0 60498 17100.00000 0 6534550.467 15119514.838 -19430679.581 10 0 60498 18000.00000 0 6303389.270 17401240.881 -17511199.360 10 0 60498 18900.00000 0 6260048.442 19436297.377 -15250431.128 10 0 60498 19800.00000 0 6369369.535 21171637.579 -12692660.410 10 0 60498 20700.00000 0 6587554.073 22564035.897 -9887898.015 10 0 60498 21600.00000 0 6864232.391 23581728.232 -6890883.537 10 0 60498 22500.00000 0 7144814.088 24205581.933 -3760001.738 10 0 60498 23400.00000 0 7373018.577 24429748.935 -556134.456 10 0 60498 24300.00000 0 7493477.348 24261777.804 2658528.511 10 0 60498 25200.00000 0 7454297.373 23722183.227 5821695.800 10 0 60498 26100.00000 0 7209477.605 22843494.102 8872174.610 10 0 60498 27000.00000 0 6721077.469 21668822.828 11751041.778 10 0 60498 27900.00000 0 5961047.383 20250017.735 14402764.238 10 0 60498 28800.00000 0 4912645.902 18645477.154 16776248.742 10 0 60498 29700.00000 0 3571385.546 16917716.754 18825802.657 10 0 60498 30600.00000 0 1945468.934 15130790.967 20511989.605 10 0 60498 31500.00000 0 55697.639 13347674.570 21802365.885 10 0 60498 32400.00000 0 -2065142.517 11627711.273 22672085.812 10 0 60498 33300.00000 0 -4373395.112 10024232.964 23104366.359 10 0 60498 34200.00000 0 -6816101.187 8582446.015 23090803.643 10 0 60498 35100.00000 0 -9332959.197 7337670.137 22631536.056 10 0 60498 36000.00000 0 -11858598.619 6314001.092 21735250.990 10 0 60498 36900.00000 0 -14325076.293 5523451.748 20419034.338 10 0 60498 37800.00000 0 -16664495.268 4965606.848 18708064.270 10 0 60498 38700.00000 0 -18811640.431 4627806.362 16635153.083 10 0 60498 39600.00000 0 -20706523.699 4485850.951 14240143.495 10 0 60498 40500.00000 0 -22296734.302 4505201.752 11569168.275 10 0 60498 41400.00000 0 -23539496.623 4642626.155 8673784.759 10 0 60498 42300.00000 0 -24403349.093 4848222.320 5609998.583 10 0 60498 43200.00000 0 -24869372.366 5067738.784 2437193.521 10 0 60498 44100.00000 0 -24931913.130 5245092.182 -783013.166 10 0 60498 45000.00000 0 -24598770.465 5324976.776 -3987968.175 10 0 60498 45900.00000 0 -23890834.289 5255454.513 -7115208.960 10 0 60498 46800.00000 0 -22841188.593 4990414.123 -10103695.079 10 0 60498 47700.00000 0 -21493715.285 4491792.496 -12895018.457 10 0 60498 48600.00000 0 -19901256.291 3731460.990 -15434566.988 10 0 60498 49500.00000 0 -18123410.930 2692693.280 -17672616.432 10 0 60498 50400.00000 0 -16224061.979 1371149.120 -19565326.944 10 0 60498 51300.00000 0 -14268735.803 -224670.783 -21075622.571 10 0 60498 52200.00000 0 -12321909.412 -2073520.631 -22173934.607 10 0 60498 53100.00000 0 -10444379.733 -4142053.977 -22838792.796 10 0 60498 54000.00000 0 -8690807.511 -6385990.739 -23057251.799 10 0 60498 54900.00000 0 -7107540.616 -8751757.956 -22825144.165 10 0 60498 55800.00000 0 -5730809.116 -11178534.872 -22147154.952 10 0 60498 56700.00000 0 -4585368.004 -13600615.508 -21036717.089 10 0 60498 57600.00000 0 -3683643.793 -15949988.341 -19515730.602 10 0 60498 58500.00000 0 -3025419.152 -18159023.514 -17614112.527 10 0 60498 59400.00000 0 -2598066.339 -20163153.802 -15369188.034 10 0 60498 60300.00000 0 -2377316.493 -21903436.264 -12824936.454 10 0 60498 61200.00000 0 -2328528.906 -23328887.074 -10031108.913 10 0 60498 62100.00000 0 -2408403.265 -24398492.274 -7042236.680 10 0 60498 63000.00000 0 -2567059.257 -25082811.544 -3916551.328 10 0 60498 63900.00000 0 -2750392.955 -25365109.749 -714839.258 10 0 60498 64800.00000 0 -2902608.322 -25241971.428 2500745.943 10 0 60498 65700.00000 0 -2968815.615 -24723375.374 5667889.621 10 0 60498 66600.00000 0 -2897586.569 -23832229.105 8725317.028 10 0 60498 67500.00000 0 -2643358.923 -22603385.488 11613966.352 10 0 60498 68400.00000 0 -2168589.978 -21082184.837 14278112.140 10 0 60498 69300.00000 0 -1445570.045 -19322584.972 16666418.956 10 0 60498 70200.00000 0 -457821.169 -17384957.897 18732906.938 10 0 60498 71100.00000 0 798976.020 -15333644.660 20437812.981 10 0 60498 72000.00000 0 2316565.102 -13234369.034 21748333.341 10 0 60498 72900.00000 0 4074223.324 -11151615.618 22639235.691 10 0 60498 73800.00000 0 6039393.614 -9146078.824 23093330.929 10 0 60498 74700.00000 0 8168814.105 -7272285.944 23101797.136 10 0 60498 75600.00000 0 10410100.336 -5576490.289 22664350.381 10 0 60498 76500.00000 0 12703717.204 -4094919.481 21789259.211 10 0 60498 77400.00000 0 14985261.956 -2852449.936 20493201.896 10 0 60498 78300.00000 0 17187966.779 -1861761.633 18800967.793 10 0 60498 79200.00000 0 19245320.137 -1123008.175 16745006.529 10 0 60498 80100.00000 0 21093700.438 -624016.555 14364831.239 10 0 60498 81000.00000 0 22674914.187 -341009.532 11706284.626 10 0 60498 81900.00000 0 23938533.633 -239822.088 8820679.284 10 0 60498 82800.00000 0 24843936.027 -277562.754 5763826.458 10 0 60498 83700.00000 0 25361957.968 -404651.571 2594970.038 10 0 60498 84600.00000 0 25476093.368 -567150.034 -624354.914 10 0 60498 85500.00000 0 25183182.149 -709285.060 -3831517.555 99